{"data":{"norad_id":69150,"intl_designator":"2026-111C","name":"STARLINK-37332","alt_names":[],"object_type":"PAYLOAD","status":"ACTIVE","operator":null,"country":"US","launch_date":"2026-05-21","launch_site_code":"AFETR","launch_vehicle":null,"mission":null,"orbit_class":"UNKNOWN","rcs_meters":null,"size_class":null,"mass_kg":null,"dimensions":null,"purposes":["comms"],"wikipedia_slug":null,"has_3d_model":false,"image_url":null,"decayed_at":null,"tle_current":{"epoch":"2026-09-20T04:02:26.875968Z","epoch_age_seconds":51820,"freshness":"FRESH","line1":"1 69150U 26111C   26263.16836662  .00004569  00000+0  14629-3 0  9997","line2":"2 69150  53.1589  67.5925 0000847  83.4737 276.6362 15.34397493 18840","mean_motion":15.34397493,"eccentricity":8.47e-5,"inclination_deg":53.1589,"raan_deg":67.5925,"arg_perigee_deg":83.4737,"mean_anomaly_deg":276.6362,"bstar":0.00014629,"rev_number":1884,"period_min":93.847911416002,"perigee_km":462.1312717501,"apogee_km":463.29011134905,"semimajor_km":6840.8476915496,"source":"CELESTRAK","updated_at":"2026-09-20T09:00:44.089591Z"}}}